SL-14 DEB

Satellite information

Favourite Embed

Satellite Type and Status

DEBRISIN ORBIT

Key statistics

Satellite SL-14 DEB at a glance.

Uptime

12502

Days in orbit

Revolutions

≈ 12.6

Per day

Orbit

LEO

Low Earth Orbit

Inclination

82.7

Latest

Satellite identification and parameters

Extended collection of information and parameters for SL-14 DEB.

Object identification

Identified? True

Debris? True

Object name: SL-14 DEB

International designator: 1991-068J

Object number (NORAD): 25999

Object ID (CCSDS): 25999

Country: COMMONWEALTH OF INDEPENDENT STATES (CIS)

Current information (Y/N): Y

RCS size: SMALL

Orbital parameters

Period: 114.111 minutes

Inclination: 82.6969 deg

SMA: 7793.148 km

Apoapsis: 1462.545 km

Periapsis: 1367.481 km

RAAN: 221.5511 deg

Eccentricy: 0.0060992

Argument of periapsis: 100.2327 deg

Mean anomaly: 288.7157 deg

Mean motion: 12.61924509 rev/day

Mean motion (dot): 0.000001 rev/day2

B* drag term: 0.00049394 1/REarth

Two-line elements (TLE)

Creation date: Dec. 19, 2025, 9:26 p.m.

Reference frame: TEME

Reference center: EARTH

Epoch: Dec. 19, 2025, 3:02 p.m. UTC

TLE line 0: 0 SL-14 DEB

TLE line 1: 1 25999U 91068J 25353.62671786 .00000100 00000-0 49394-3 0 9992

TLE line 2: 2 25999 82.6969 221.5511 0060992 100.2327 288.7157 12.61924509205783

Live tracking on map

Real-time ground track for satellite SL-14 DEB.

In-orbit conjunctions

A list of the most updated potential collisions computed for object SL-14 DEB.

Target Orbit TCA Probability of collision Miss distance Type
THORAD DELTA 1 DEB SSO 2024-11-16 17:52:11 0.0007036015 617.0 (m) DEBRIS

Associated space launch

Second generation store-dump military communications satellite

SL-14 DEB was lifted into orbit during the mission ‘Tsiklon-3 | Strela-3 67 to 72’, on board a Tsiklon-3 space rocket.

The launch took place on Sept. 28, 1991, 7:05 a.m. from 32/2.

For more information about the launch, click the button.

Launch to space Tsiklon-3 | Strela-3 67 to 72
Tsiklon-3 | Strela-3 67 to 72

Agency: N/A

Status: Launch Successful

Launch date: Sept. 28, 1991, 7:05 a.m. UTC

Rocket: Tsiklon-3

Launch pad: 32/2

Location: Plesetsk Cosmodrome, Russian Federation

...

Latest news about this satellite

There are no fresh news available about this satellite. Check back as we update our databases every day.


Newsletter sign-up

Weekly statistics, charts and insights to help you stay on top of the space industry.